ASTROCAST-0205 (48960 NORAD) Tracking and Keplerian Element Data

This shows tracking and keplerian element data for the satellite.

Feedback or suggestion? Click here.




ElementValue
Catalog48960
NameASTROCAST-0205
Epoch Orbit1397
Epoch Day269.14142076
Epoch Year2021
RAAN36.8608
Inclination97.5236
Eccentricity0.0013814
Argument of Perigee292.6157
Mean Anonmoly67.3613
Mean Motion15.14421838
Decay Rate1.327E-05
L11 48960U 21059CK 21269.14142076 .00001327 00000-0 75737-4 0 9995
L22 48960 97.5236 36.8608 0013814 292.6157 67.3613 15.14421838 13974

Live tracking and technical data element details for ASTROCAST-0205 (NORAD 48960). ASTROCAST-0205 can be tracked NOW for your location showing map with azimuth and elevation plus other details from your city location.

Track the satellite on the map from your city or location and see movement details for azimuth, elevation, latitude, longitude, range, height, and movement on the map or in text.







IsCatalogInMostPopularTable: catalog: 48960, numindb: 23
Update: records affected: 1



GetName: 48960 ASTROCAST-0205

Hit Count: updated at: Sun, 26 Sep 2021 15:05:03 GMT